GEFSNGP_con_probscp_282.txt.gz
Probability
0 0 0 0 1 1 1 0 1 2 3 4 8 14 18 20 22 24 31 41 52 58 61 61 59 57 55 54 54 51 46 41 38 35 34 33 32 33 33 29 22 17 16 17
0 0 0 0 0 0 0 1 2 2 3 5 10 16 20 23 25 27 32 39 49 58 63 65 63 59 55 55 55 52 48 44 39 36 35 35 35 35 36 33 27 21 20 20
1 1 1 0 0 0 0 1 2 3 4 7 13 18 20 23 26 28 31 37 46 57 65 68 67 63 60 59 57 54 51 48 43 40 39 37 37 37 38 36 31 26 24 24
2 2 2 1 0 0 1 2 3 3 6 10 15 18 19 21 25 28 31 37 45 55 61 65 66 65 63 62 59 55 52 49 46 45 44 41 40 40 40 38 34 30 27 26
2 2 1 1 0 0 1 3 4 4 6 10 13 16 18 22 28 33 36 42 48 52 55 59 62 63 62 61 60 57 52 48 47 48 47 46 44 43 43 41 37 33 29 27
3 1 0 0 1 1 1 4 5 5 7 11 14 16 21 30 38 41 45 49 52 52 52 55 59 61 62 60 60 60 56 52 50 50 49 48 47 46 46 45 40 34 31 29
5 2 1 1 2 4 9 13 11 7 8 12 16 21 30 40 47 49 50 52 53 53 54 56 60 63 64 63 63 62 60 58 55 52 49 48 48 49 49 47 42 36 32 30
7 5 4 6 8 11 19 23 17 11 10 13 17 26 37 46 49 49 50 50 50 52 54 58 61 65 67 66 62 60 60 60 57 52 48 46 47 48 49 48 43 37 33 31
10 9 9 12 14 17 20 21 17 12 12 13 20 31 41 47 49 48 49 49 49 50 55 58 61 63 65 65 62 59 60 60 55 50 46 45 44 44 46 45 42 38 34 31
14 13 13 13 14 15 15 14 12 11 11 15 23 34 42 47 49 50 50 50 49 51 55 58 59 61 63 64 62 60 59 57 52 47 45 44 43 41 41 41 40 37 34 32
17 17 16 14 12 11 12 13 12 11 13 18 25 33 39 42 45 49 50 50 50 52 55 56 56 59 61 60 58 56 55 52 47 43 41 41 39 34 31 30 29 28 27 25
20 21 20 18 14 11 12 14 12 12 16 22 27 32 35 38 41 46 48 49 50 53 54 53 53 54 55 54 53 51 48 44 40 38 37 36 32 26 19 15 13 12 12 12
21 21 22 21 19 16 15 15 14 16 21 25 28 32 35 38 41 44 45 47 49 52 52 49 48 48 48 48 49 48 44 38 34 33 33 32 29 22 16 10 6 4 4 3
17 17 19 20 20 19 19 18 18 20 24 25 26 30 35 39 41 43 44 45 46 48 47 44 43 44 43 45 47 46 41 35 31 30 31 29 25 21 18 15 10 6 4 2
11 11 14 16 16 16 18 18 19 21 22 23 24 28 34 39 41 43 44 44 42 42 42 41 40 41 41 42 45 44 38 32 29 28 27 24 20 18 18 16 13 9 6 4
7 9 11 12 12 14 16 17 17 18 20 22 25 29 34 38 41 42 42 40 39 38 39 39 37 36 36 38 39 37 32 26 24 24 23 20 17 16 17 16 14 11 8 6
5 8 11 11 11 13 15 14 13 14 19 25 28 30 33 36 38 38 37 36 36 36 36 35 32 30 30 31 30 28 23 19 18 19 19 17 16 16 16 16 14 11 9 7
5 8 12 12 10 11 12 11 11 13 18 25 27 27 30 32 33 33 32 32 34 34 32 30 26 24 25 25 24 22 18 15 16 17 18 16 15 16 16 15 13 12 9 7
8 11 13 13 11 10 10 11 12 15 18 21 23 25 27 29 29 28 28 28 30 30 29 27 23 21 22 21 19 17 15 14 16 17 17 16 15 14 13 12 12 11 9 7
12 12 13 13 12 10 10 12 14 17 19 20 21 24 27 27 26 25 25 25 26 28 29 26 21 19 19 16 12 10 9 9 11 14 15 15 14 13 11 10 9 10 10 8
11 10 10 10 10 9 9 11 13 16 19 20 20 22 25 26 24 21 21 23 25 27 25 22 19 16 14 11 7 4 4 5 7 10 13 14 14 12 11 9 7 9 9 8
8 8 9 10 9 9 9 9 11 14 17 19 19 20 23 23 20 18 18 23 24 21 18 17 15 12 8 6 5 4 4 4 5 7 10 12 12 11 9 8 7 7 8 7
9 10 11 12 11 11 11 10 11 13 16 18 19 20 21 20 18 16 16 18 18 14 12 12 10 7 5 6 6 5 6 7 7 7 7 9 9 8 7 6 6 6 6 6
8 10 12 12 12 12 11 10 9 12 14 14 14 15 16 16 15 14 13 12 10 8 7 6 4 4 4 5 5 5 7 9 9 7 7 6 7 6 5 5 6 6 6 6
6 9 11 11 11 10 8 7 7 8 9 8 7 8 10 10 11 12 13 11 7 6 5 3 2 3 4 5 4 4 5 6 6 6 5 5 6 5 4 4 6 6 7 7
5 8 9 9 8 7 6 5 5 5 5 4 3 4 6 7 7 9 12 11 8 7 6 4 3 4 5 5 4 3 4 4 3 3 3 3 4 4 3 4 5 6 6 7
5 7 8 7 6 6 6 5 4 4 3 3 3 4 6 6 7 8 9 10 9 9 8 6 5 6 6 6 4 3 3 3 3 1 1 2 3 3 3 4 4 5 6 6

GEFSNGP_con_probscp_288.txt.gz
Probability
0 0 0 0 0 0 0 0 0 1 2 2 1 1 5 10 14 16 18 19 21 20 22 28 33 34 34 32 31 31 29 26 25 22 19 17 14 10 7 5 4 3 3 3
0 0 0 0 0 0 0 0 1 2 3 2 1 3 7 12 17 21 21 21 21 20 21 26 30 33 34 33 31 30 27 25 24 23 23 22 18 13 10 8 6 5 4 3
0 0 0 0 0 0 0 0 2 3 3 2 3 5 9 13 18 23 25 24 22 20 20 22 26 31 34 34 32 31 28 25 23 24 26 25 20 16 14 13 13 11 8 6
0 1 1 1 0 0 0 1 2 3 3 4 5 7 8 10 15 22 27 28 26 25 23 23 25 29 32 34 33 31 28 27 24 24 26 25 22 19 18 19 20 18 13 9
0 1 2 2 1 1 2 4 5 6 6 7 8 9 10 11 14 22 29 32 32 32 31 28 27 29 33 35 33 30 29 30 27 25 26 27 25 22 22 23 25 22 16 11
0 1 1 1 2 3 4 6 8 10 10 10 9 11 13 15 19 25 30 34 37 38 37 35 32 32 35 37 35 32 31 31 29 28 27 27 26 24 25 27 27 23 16 12
1 2 1 1 4 5 6 7 9 10 11 10 10 12 17 21 24 28 30 33 36 39 40 38 35 34 36 38 37 34 31 30 29 29 29 28 27 27 29 28 25 21 16 12
1 1 1 2 4 6 6 7 9 9 9 10 13 18 23 26 28 30 32 33 35 37 39 38 37 36 36 37 36 33 29 27 27 28 29 30 30 30 31 28 25 22 19 16
1 2 2 3 4 5 6 7 8 8 9 12 17 22 26 28 31 33 35 34 35 37 38 37 38 39 37 35 34 32 28 26 26 26 26 29 31 32 31 28 26 24 22 20
6 6 7 7 7 6 6 7 8 8 10 15 19 23 26 28 29 31 33 33 34 38 39 38 39 40 38 35 34 34 30 27 25 23 23 25 27 28 28 26 25 23 21 20
10 10 10 10 10 9 8 8 8 9 11 15 19 23 25 26 26 27 29 32 34 37 38 38 38 38 36 35 35 34 31 28 25 23 20 20 21 20 18 18 18 17 17 17
9 9 9 9 9 9 9 8 8 9 11 13 16 20 23 23 23 24 27 30 33 34 35 35 36 35 33 32 31 30 28 25 23 21 19 16 16 13 10 9 8 8 10 12
5 6 7 7 7 8 9 9 9 10 12 13 14 17 21 22 23 25 26 28 29 29 30 32 32 30 28 27 27 26 23 21 20 19 16 14 14 12 8 5 3 2 3 5
3 5 7 7 7 8 9 10 10 10 13 14 15 17 20 23 25 26 26 25 24 23 25 27 28 27 27 26 25 22 20 19 19 17 15 13 13 12 10 8 5 2 1 1
2 3 6 7 7 8 9 9 9 9 12 14 17 19 20 21 23 25 24 22 19 18 20 23 24 25 26 25 23 20 21 22 21 18 15 13 13 12 11 10 7 3 1 0
3 4 5 7 8 8 8 8 8 8 10 12 15 17 18 18 20 22 21 20 18 17 18 20 20 22 23 23 20 20 23 24 22 18 14 13 12 10 10 9 7 4 1 0
4 5 7 8 8 7 7 8 8 8 8 10 13 15 16 18 19 20 19 19 18 17 17 17 18 19 21 21 19 19 21 22 19 16 13 12 10 8 7 6 5 3 1 0
2 4 6 8 6 6 6 8 9 8 8 9 12 14 16 18 19 19 19 18 17 15 14 15 16 17 19 19 17 15 15 15 14 11 10 9 7 5 4 4 4 3 1 0
2 3 5 5 3 3 4 7 9 10 10 10 12 14 16 18 18 16 16 16 15 13 12 12 13 15 17 16 13 11 10 10 9 8 6 5 3 3 3 3 3 3 2 1
2 3 4 2 1 1 2 4 7 9 9 8 9 11 13 14 13 12 12 12 12 10 9 9 11 14 15 13 10 6 6 6 6 6 4 2 0 1 2 2 3 3 3 2
5 5 4 2 0 0 0 2 4 5 5 4 4 6 7 7 8 8 9 9 8 7 6 7 10 13 12 9 6 4 4 4 4 4 3 1 0 0 1 1 1 2 2 2
6 5 4 2 1 1 1 2 3 3 3 3 4 5 4 4 5 7 8 7 6 5 4 6 9 9 8 5 4 3 3 3 3 3 2 1 0 0 0 0 0 1 1 1
4 4 3 3 2 2 2 2 3 3 5 6 7 6 6 6 6 6 7 6 5 4 4 5 6 6 5 4 3 3 3 3 3 2 1 0 0 0 0 0 0 0 0 0
3 3 3 3 3 3 3 2 2 3 6 7 7 7 6 6 6 6 6 5 4 3 2 2 3 4 4 3 3 3 3 3 3 2 0 0 0 0 0 0 0 0 0 0
3 3 3 3 3 3 3 2 2 3 5 6 6 6 6 6 6 5 4 3 2 2 2 1 2 3 3 3 3 3 3 3 3 2 0 0 0 0 0 0 0 0 0 0
2 1 1 3 3 3 3 3 2 2 3 4 5 5 4 4 4 4 4 3 3 3 2 2 2 3 4 4 3 3 3 3 2 1 0 0 0 0 0 0 0 0 0 0
2 1 1 2 3 3 3 3 2 1 1 2 2 2 3 3 4 5 5 4 3 3 2 1 2 3 5 5 4 3 3 2 1 0 0 0 0 0 0 0 0 0 0 0

GEFSNGP_con_probscp_294.txt.gz
Probability
0 0 0 0 0 0 0 0 0 0 1 2 3 3 3 2 1 2 3 4 4 5 7 10 15 19 22 23 22 17 13 10 9 8 7 4 2 3 3 3 2 2 3 3
0 0 0 0 0 0 0 0 0 0 0 1 3 4 4 3 2 3 3 4 5 6 8 12 16 20 23 25 24 20 15 10 8 8 9 7 4 4 4 4 5 6 5 5
0 0 0 0 0 0 0 0 0 0 0 1 3 5 5 4 3 3 4 5 7 8 9 13 17 20 23 26 26 23 17 11 8 8 10 9 6 6 7 8 9 10 10 9
0 0 0 0 0 0 0 0 1 1 1 1 3 5 5 4 3 3 4 5 8 9 9 13 18 20 23 26 27 25 20 14 10 9 10 9 8 8 11 12 13 13 13 13
0 0 0 1 0 0 1 1 2 2 2 2 3 5 4 4 4 4 4 5 8 10 13 15 17 21 25 28 29 27 23 18 15 14 12 10 9 10 12 14 14 14 13 13
0 0 0 1 1 1 2 3 2 3 4 3 3 3 3 4 4 5 5 6 8 13 17 17 17 21 27 30 30 28 24 21 21 20 17 13 12 12 12 13 13 14 13 12
0 0 0 1 2 3 3 3 3 5 6 5 4 3 3 3 5 6 8 9 10 14 18 18 17 21 26 28 27 25 22 22 23 23 21 18 16 13 12 12 12 12 11 11
0 0 0 1 3 3 2 2 4 6 6 7 7 6 5 6 7 9 11 12 14 17 20 19 18 22 26 26 26 24 23 22 23 22 21 20 17 14 13 13 13 11 9 9
1 1 1 1 1 2 2 3 5 7 7 8 8 8 9 10 11 12 13 13 16 21 23 21 19 22 25 28 29 29 27 24 22 20 18 17 16 15 16 17 16 13 10 8
2 2 2 1 1 1 2 3 5 6 7 8 8 9 11 12 12 12 12 13 17 21 24 22 20 21 24 28 32 32 29 24 20 18 16 16 16 16 17 18 18 16 13 10
4 3 3 3 3 3 3 4 5 6 7 7 6 8 10 12 11 10 11 13 16 19 22 22 21 22 23 27 29 30 28 22 18 17 16 16 15 14 13 14 14 14 14 13
5 4 4 5 6 5 5 5 6 5 5 5 5 5 8 9 10 10 11 13 15 17 19 20 21 21 23 25 27 27 25 20 17 17 17 15 13 9 7 7 7 8 9 10
5 6 6 6 6 6 5 5 5 5 5 5 3 3 5 7 8 9 11 13 15 16 17 17 17 19 22 24 25 24 21 19 17 16 16 15 11 7 4 4 4 4 4 4
6 7 7 7 6 6 6 5 4 5 6 6 5 4 4 6 7 8 10 13 14 15 16 14 14 17 19 21 22 20 18 17 16 15 14 13 11 8 6 6 6 5 2 1
4 5 5 5 6 6 6 5 4 5 7 8 7 5 5 6 6 5 7 11 13 14 14 14 14 15 15 17 17 16 15 15 14 13 11 10 8 7 7 7 7 6 3 1
2 2 2 3 5 6 5 5 4 4 6 7 6 5 5 6 5 4 6 9 11 12 12 13 13 13 12 12 13 14 13 13 12 10 9 7 6 6 7 7 8 8 5 3
1 1 0 1 3 4 4 4 4 4 4 5 5 5 5 6 6 5 6 8 10 11 11 13 12 11 10 10 10 11 13 13 10 8 6 5 5 6 7 8 8 7 5 3
1 1 1 2 3 3 3 3 3 3 4 5 6 6 6 6 7 7 7 9 10 11 11 12 11 11 10 9 8 10 11 11 9 7 6 4 5 7 9 8 6 4 2 2
2 2 2 2 2 2 2 3 3 3 4 5 6 7 8 8 9 9 9 10 11 12 11 10 10 11 11 9 8 9 10 10 9 7 6 4 5 7 8 6 3 1 0 1
3 2 1 1 0 1 1 1 2 2 3 4 6 9 10 10 9 9 10 11 12 11 10 9 9 10 10 9 8 9 10 10 9 8 6 5 5 5 4 2 1 0 0 0
2 2 1 0 1 1 0 0 1 1 1 3 5 8 9 9 8 8 9 9 10 9 9 8 7 7 6 5 6 7 9 9 9 8 7 5 4 3 1 0 0 0 0 0
1 2 1 1 1 2 1 0 0 0 0 1 3 5 6 7 7 6 5 6 6 6 6 6 5 4 3 3 4 5 7 8 8 7 6 4 3 2 1 0 0 0 0 0
1 2 2 1 1 2 2 1 0 1 1 1 2 3 4 4 4 4 3 3 4 4 4 3 3 3 3 3 3 4 4 4 4 4 4 3 3 2 1 0 0 0 0 0
1 2 2 1 0 1 1 1 0 1 2 2 2 2 3 3 3 3 3 3 3 3 3 1 1 3 3 3 3 3 3 2 1 2 2 3 3 2 1 0 0 0 0 0
0 1 1 0 0 0 0 0 0 1 2 3 3 3 3 3 3 3 3 3 2 3 3 1 1 3 3 3 3 3 2 1 0 0 1 1 2 1 0 0 0 0 0 0
0 0 0 0 0 0 0 0 0 0 1 2 2 3 3 3 3 4 4 3 2 3 3 3 2 2 2 2 2 1 1 0 0 0 0 0 1 1 0 0 0 0 0 0
0 0 0 0 0 0 0 0 0 0 0 1 1 2 3 3 4 5 4 2 2 3 3 3 3 2 1 1 1 0 0 0 0 0 0 0 1 1 1 0 0 0 0 0

GEFSNGP_con_probscp_300.txt.gz
Probability
0 0 0 0 0 0 0 0 0 0 1 3 6 7 7 7 9 10 13 16 19 21 22 18 16 17 18 17 19 23 26 25 23 18 11 9 11 12 10 7 7 10 12 12
0 0 0 0 0 0 0 0 0 0 1 4 6 8 9 8 8 9 11 14 17 19 20 19 18 20 21 20 22 27 29 28 25 20 14 12 13 14 13 11 11 13 14 13
0 0 0 0 0 1 1 0 1 1 2 5 7 10 11 11 10 9 9 11 14 16 16 17 20 24 26 26 27 30 32 31 29 25 22 19 18 17 16 14 13 14 15 15
0 0 0 0 1 2 2 1 2 3 5 7 9 12 13 13 13 11 10 11 13 13 13 14 19 27 31 32 33 34 34 36 35 32 29 28 26 23 19 15 13 14 16 17
0 0 0 0 1 2 2 2 4 6 7 9 12 14 14 14 14 14 13 13 12 11 13 15 20 28 34 37 38 38 39 40 40 37 35 34 32 30 25 18 14 15 18 20
1 0 0 0 1 2 2 4 6 9 10 13 14 14 14 14 15 16 17 16 15 14 16 20 25 31 35 37 39 41 41 43 43 41 39 38 37 34 30 23 17 16 19 21
1 1 1 1 1 3 4 7 10 11 13 15 15 15 16 16 16 16 18 19 19 20 21 25 30 35 36 36 39 42 43 44 44 41 39 41 41 36 31 27 22 20 21 22
1 1 1 1 2 4 7 11 13 13 15 16 16 16 17 17 16 17 19 20 21 23 24 26 30 36 39 38 39 41 43 44 43 40 39 40 41 37 32 29 26 24 23 22
1 1 1 1 2 4 8 12 13 13 14 15 15 15 16 17 18 20 24 24 24 24 24 24 27 34 39 40 40 40 41 42 41 40 39 39 39 37 32 29 27 25 23 23
1 1 2 3 4 5 7 11 12 11 12 13 13 13 14 17 21 25 28 29 28 26 24 22 25 31 36 40 40 39 39 40 39 38 37 37 37 34 30 27 25 24 24 23
3 4 6 7 7 7 7 9 9 10 11 12 12 12 12 16 21 27 30 30 30 27 24 22 25 30 34 37 40 40 40 40 38 35 34 35 34 29 25 22 21 21 22 21
6 7 10 12 10 8 8 8 8 9 10 11 12 11 10 13 19 25 27 28 27 26 24 23 25 29 31 34 38 40 40 40 37 34 34 33 30 24 18 15 13 13 14 15
9 9 11 13 12 10 9 9 9 8 8 9 9 9 9 12 16 19 21 22 22 22 23 22 23 26 27 30 34 37 37 37 35 33 32 30 27 22 16 11 8 6 6 7
10 10 11 12 12 11 11 10 9 7 7 6 7 8 10 11 12 12 14 16 16 17 17 19 21 22 23 26 31 34 33 32 31 30 29 28 27 24 19 13 9 6 4 4
8 8 9 9 10 11 12 11 9 7 6 6 7 9 10 11 11 10 11 12 12 12 13 16 18 19 21 23 27 29 28 28 28 28 26 26 25 23 18 13 10 6 3 3
6 7 7 7 7 9 11 11 9 9 8 8 9 10 11 11 10 10 10 10 11 10 12 15 17 17 18 21 23 24 24 24 24 24 22 21 20 20 16 11 8 5 2 2
7 7 7 6 5 6 9 9 9 9 9 10 10 10 11 12 11 11 10 10 11 11 12 15 17 16 16 18 19 20 21 21 20 19 18 16 16 16 13 10 7 5 2 1
8 8 7 6 5 6 7 7 7 7 8 9 10 10 12 14 14 13 12 11 11 11 11 12 14 14 14 14 16 17 18 19 18 16 15 12 12 12 11 9 8 6 3 1
7 7 6 6 6 6 6 7 7 7 8 8 9 11 13 15 16 15 14 13 11 11 11 11 11 13 14 12 12 14 16 16 16 16 15 12 11 11 10 9 7 6 5 3
7 7 7 7 6 5 5 6 7 8 9 9 9 10 13 14 13 13 14 13 10 9 10 10 11 13 14 11 10 12 13 13 14 15 14 14 12 11 10 7 5 5 5 4
9 9 8 7 5 4 5 6 7 8 9 8 8 9 11 12 11 11 13 12 9 8 8 9 10 11 11 10 10 11 11 10 10 11 12 14 13 11 10 7 5 5 4 3
9 8 7 6 4 4 5 6 7 8 8 7 7 8 10 11 11 10 11 10 8 7 8 8 8 7 7 9 11 11 9 8 9 9 10 11 10 10 10 8 7 7 5 2
8 6 4 3 2 3 6 7 8 8 7 7 7 8 9 10 9 9 8 7 5 5 6 6 4 2 4 9 11 10 9 9 9 9 8 7 7 8 8 8 8 8 5 3
6 3 1 1 1 3 5 6 8 7 7 7 7 8 9 8 8 7 6 3 2 3 4 3 1 0 3 8 10 9 9 9 9 8 7 5 5 6 6 7 7 6 4 2
2 1 0 0 1 2 4 5 5 5 5 6 7 7 8 7 8 8 6 3 1 2 3 1 0 1 4 7 8 7 7 8 8 7 6 5 4 4 3 4 5 5 3 1
0 0 0 0 1 1 2 3 3 3 4 5 5 6 6 6 7 8 7 5 3 2 2 1 1 2 4 5 6 6 6 7 6 5 4 3 2 1 1 1 3 4 3 2
0 0 0 0 1 1 1 1 1 1 2 3 4 4 4 4 5 6 7 6 5 3 2 2 2 3 4 4 4 4 5 6 5 3 2 1 0 0 0 0 1 3 3 3

GEFSNGP_con_probscp_306.txt.gz
Probability
0 0 0 0 0 0 0 0 0 1 7 17 20 17 13 14 18 24 27 29 36 46 49 49 50 49 48 48 47 44 40 40 44 45 42 40 39 37 36 33 32 29 25 23
0 0 0 0 0 0 0 0 1 2 8 16 19 17 15 16 19 24 26 27 33 43 48 49 50 50 51 53 51 46 40 39 43 44 42 41 40 38 37 37 35 31 27 25
1 1 0 0 1 1 2 2 3 5 10 14 15 15 16 16 18 21 24 26 32 41 46 47 48 50 51 55 55 49 43 41 43 44 44 43 42 40 41 42 40 35 29 27
2 2 1 1 2 3 5 6 7 8 11 13 14 15 17 17 17 19 23 27 32 37 41 44 47 49 50 51 52 49 46 45 45 45 46 46 46 46 47 46 44 39 33 31
2 2 1 2 3 4 6 9 11 13 14 15 16 17 21 21 19 21 24 27 29 30 34 40 46 51 50 48 47 46 46 46 48 48 48 50 51 52 52 50 46 43 39 37
1 1 2 3 3 4 6 10 16 20 21 20 20 21 23 25 24 24 26 27 27 28 32 40 48 52 51 48 47 47 46 48 51 52 53 54 56 57 55 52 48 46 44 43
0 1 4 5 5 7 11 14 19 23 24 24 25 25 25 27 28 28 29 29 30 32 37 44 49 51 51 51 51 52 52 53 54 55 55 56 59 60 58 54 50 48 47 46
1 3 7 10 11 15 19 20 20 22 23 25 27 27 27 29 28 28 29 31 33 37 41 45 49 49 49 50 54 56 56 55 55 53 50 53 59 61 59 56 51 49 48 48
4 6 10 15 17 19 20 20 21 20 20 23 25 27 28 26 23 23 27 30 33 38 41 44 47 48 47 48 51 55 55 52 49 47 47 51 58 59 58 56 51 47 47 47
10 9 11 15 17 17 16 19 20 18 19 21 23 26 27 23 22 25 28 30 33 37 39 42 44 45 45 45 46 49 49 47 45 45 46 51 55 55 54 53 49 45 45 46
14 13 12 14 15 15 17 19 19 17 18 20 21 23 24 24 25 28 32 34 35 36 37 39 42 43 44 44 44 44 43 41 42 43 45 46 46 43 43 43 39 35 35 37
16 15 14 15 16 17 19 19 18 17 18 19 19 19 21 25 27 29 32 35 35 35 36 38 40 41 43 44 45 45 42 39 37 38 40 39 36 30 27 25 21 16 16 19
18 17 17 17 17 17 18 17 16 16 18 19 19 19 20 24 28 29 30 32 32 33 37 39 39 38 41 44 47 47 43 37 34 33 33 33 32 28 22 17 12 7 5 5
18 17 17 17 16 15 15 15 15 17 20 21 20 21 22 25 28 29 29 30 31 32 35 37 36 35 36 40 44 44 39 32 30 29 29 30 32 30 26 22 19 14 7 3
14 14 14 15 14 12 13 14 15 18 22 21 21 22 23 25 26 27 28 29 28 27 29 31 33 33 33 34 38 37 32 28 26 27 28 30 30 29 28 27 26 23 16 9
9 11 12 12 11 10 11 13 15 18 20 19 18 19 20 21 23 25 26 26 24 24 25 27 29 30 30 31 31 31 28 24 23 25 26 28 28 27 27 27 27 25 20 15
11 11 12 12 10 9 9 12 15 17 18 16 16 16 16 17 20 23 24 23 23 24 24 24 25 25 25 25 24 25 24 21 19 20 22 24 25 26 25 25 25 23 19 15
13 13 13 11 9 9 9 11 13 15 16 16 15 14 14 15 19 22 23 24 25 25 22 19 19 19 20 19 18 19 20 17 16 18 20 20 20 21 21 21 22 21 18 14
12 12 11 9 8 9 10 10 11 13 16 16 14 14 15 16 19 21 23 24 24 22 19 15 13 15 18 17 14 15 16 14 14 18 20 19 17 17 17 17 18 20 18 15
10 11 10 9 9 10 10 10 10 12 14 14 14 15 16 18 19 20 20 21 21 20 17 14 12 13 16 15 12 11 12 11 11 15 18 18 18 18 17 17 18 18 15 14
11 12 13 11 10 11 11 10 10 10 10 10 11 13 15 17 18 19 19 19 19 19 16 12 11 12 13 11 10 10 11 10 10 12 14 16 18 20 20 20 20 17 13 12
14 15 15 13 12 12 11 10 9 8 8 8 9 11 13 15 16 18 18 18 16 14 11 9 8 8 7 7 9 11 11 11 11 11 13 15 17 19 20 19 17 15 12 10
15 16 16 16 15 13 11 9 8 9 9 9 10 11 11 12 13 14 14 13 11 8 6 6 5 4 5 6 9 11 11 11 12 12 13 15 16 16 15 13 11 11 9 7
13 14 16 17 17 14 11 9 10 11 11 11 11 11 10 9 9 9 9 7 6 5 4 2 2 3 4 7 9 9 9 9 11 13 14 14 14 12 10 8 7 8 7 5
11 12 14 16 15 12 11 10 10 10 10 9 9 9 8 7 7 8 7 5 3 4 4 2 1 3 5 7 8 8 8 8 9 11 13 13 12 9 7 7 7 7 6 5
9 9 11 13 12 10 10 10 8 7 5 5 6 7 7 6 8 9 9 7 5 4 4 3 3 3 5 7 8 7 7 8 10 11 11 11 10 8 7 7 8 7 5 5
8 8 9 10 10 8 8 9 7 4 2 2 4 6 6 6 8 10 11 10 7 6 5 4 3 3 5 8 8 7 7 9 11 11 11 9 8 8 7 7 8 7 5 4